weather.gov     
National Weather Service

Terminal Aerodrome Forecast
NWS Homepage
This page is being discontinued on March 12, 2014.
The same data is available at this site. Please update your bookmarks.
Thank you, and we apologize for the inconvenience.
Please send an email to SR-SRH.Webmaster@noaa.gov with any concerns.


Current Version
Previous Version:    01  02  03  04  05  06  07  08  09  10  11  12  13  14  15  16  17  18  19  20  21  22  23  24  25  26  27  28  29  30  
   31  32  33  34  
[Printable]
208
FTUS43 KLSX 232300
TAFCPS
TAF
KCPS 232320Z 2400/2424 12008KT P6SM BKN150
     FM241500 15013G22KT P6SM SCT050 BKN150
     FM241800 16014G24KT 6SM -SHRA BKN040
     FM242200 16014G22KT 5SM -SHRA VCTS OVC035CB=


U.S. Dept. of Commerce
NOAA National Weather Service
1325 East West Highway
Silver Spring, MD 20910
E-mail: w-nws.webmaster@noaa.gov
Page last modified: May 16, 2007
NATIONAL WEATHER SERVICE: for Safety, for Work, for Fun - FOR LIFE